Weather History for Tri-Cities, TN

Change the Weather History Date:

Wednesday, July 17, 2013

  Actual Average Record
Temperature  
Mean Temperature 80 °F 75 °F  
Max Temperature 91 °F 86 °F 94 °F (1980)
Min Temperature 68 °F 64 °F 52 °F (2014)
Degree Days  
Heating Degree Days 0 0  
Month to date heating degree days 0 0  
Since 1 June heating degree days 0 11  
Since 1 July heating degree days 0 0  
Cooling Degree Days 15 10  
Month to date cooling degree days 172 167  
Year to date cooling degree days 467 446  
Since 1 June cooling degree days 395 373  
Growing Degree Days 28 (Base 50)    
Moisture  
Dew Point 68 °F    
Average Humidity 73    
Maximum Humidity 93    
Minimum Humidity 52    
Precipitation  
Precipitation 1.58 in 0.16 in 1.58 in (2013)
Month to date precipitation 4.90 2.56  
Year to date precipitation 37.96 23.85  
Snow  
Snow 0.00 in 0.00 in - ()
Month to date snowfall 0.0 0.0  
Since 1 June snowfall 0.0 0.0  
Since 1 July snowfall 0.0 0.0  
Snow Depth 0.00 in    
Sea Level Pressure  
Sea Level Pressure 30.25 in    
Wind  
Wind Speed 2 mph (NE)    
Max Wind Speed 18 mph    
Max Gust Speed 23 mph    
Visibility 7 miles    
Events Rain , Thunderstorm    
T = Trace of Precipitation, MM = Missing Value Source: NWS Daily Summary

Daily Weather History Graph

Daily Weather History Graph

Search for Another Location

Airport:

Trip Planner

Search our weather history database for the weather conditions in past years. The results will help you decide how hot, cold, wet, or windy it might be!

Date:

Astronomy

Jul. 17, 2013 Rise Set
Actual Time 6:24 AM EDT 8:46 PM EDT
Civil Twilight 5:55 AM EDT 9:16 PM EDT
Nautical Twilight 5:18 AM EDT 9:52 PM EDT
Astronomical Twilight 4:38 AM EDT 10:32 PM EDT
Moon 3:36 PM EDT (7/17) 1:27 AM EDT (7/17)
Length of Visible Light 15h 20m
Length of Day
14h 21m
Waxing Gibbous, 67% of the Moon is Illuminated
Jul 17
Waxing Gibbous
Jul 22
Full
Jul 29
Last Quarter
Aug 6
New
Aug 14
First Quarter

Hourly Weather History & Observations

Time (EDT) Temp. Heat Index Dew Point Humidity Pressure Visibility Wind Dir Wind Speed Gust Speed Precip Events Conditions
12:53 AM 72.0 °F - 68.0 °F 87% 30.24 in 10.0 mi North 3.5 mph - N/A   Mostly Cloudy
1:53 AM 73.0 °F - 69.1 °F 87% 30.24 in 10.0 mi Calm Calm - N/A   Mostly Cloudy
2:53 AM 69.1 °F - 66.9 °F 93% 30.23 in 9.0 mi NE 3.5 mph - N/A   Mostly Cloudy
3:53 AM 69.1 °F - 66.9 °F 93% 30.23 in 8.0 mi East 3.5 mph - N/A   Mostly Cloudy
4:53 AM 69.1 °F - 66.9 °F 93% 30.24 in 6.0 mi Calm Calm - N/A   Mostly Cloudy
5:53 AM 68.0 °F - 66.9 °F 96% 30.25 in 6.0 mi Calm Calm - N/A   Mostly Cloudy
6:00 AM - - - N/A% - - North - - N/A   Unknown
6:53 AM 69.1 °F - 66.9 °F 93% 30.26 in 6.0 mi Calm Calm - N/A   Scattered Clouds
7:53 AM 72.0 °F - 69.1 °F 91% 30.27 in 10.0 mi Calm Calm - N/A   Scattered Clouds
8:53 AM 75.0 °F - 69.1 °F 82% 30.28 in 10.0 mi Calm Calm - N/A   Scattered Clouds
9:53 AM 78.1 °F - 70.0 °F 76% 30.27 in 10.0 mi Calm Calm - N/A   Scattered Clouds
10:53 AM 82.0 °F 86.3 °F 71.1 °F 69% 30.27 in 10.0 mi Calm Calm - N/A   Scattered Clouds
11:53 AM 84.9 °F 90.7 °F 72.0 °F 65% 30.26 in 10.0 mi Variable 3.5 mph - N/A   Scattered Clouds
12:53 PM 84.9 °F 89.4 °F 70.0 °F 61% 30.25 in 10.0 mi Calm Calm - N/A   Mostly Cloudy
1:53 PM 89.1 °F 94.1 °F 70.0 °F 53% 30.21 in 10.0 mi North 8.1 mph - N/A   Scattered Clouds
2:53 PM 89.1 °F 95.0 °F 71.1 °F 55% 30.17 in 10.0 mi North 5.8 mph - N/A   Scattered Clouds
3:47 PM 87.8 °F 92.6 °F 69.8 °F 55% 30.24 in 10.0 mi North 3.5 mph - N/A Thunderstorm Thunderstorm
3:53 PM 88.0 °F 92.1 °F 69.1 °F 53% 30.17 in 10.0 mi Variable 5.8 mph - N/A Thunderstorm Thunderstorm
4:53 PM 80.1 °F 84.5 °F 73.9 °F 81% 30.15 in 7.0 mi SSE 5.8 mph - 0.00 in Rain , Thunderstorm Light Thunderstorms and Rain
5:11 PM 75.0 °F - 69.1 °F 82% 30.26 in 1.8 mi Variable 6.9 mph - 0.06 in Rain , Thunderstorm Heavy Thunderstorms and Rain
5:16 PM 73.9 °F - 69.1 °F 85% 30.26 in 0.8 mi Variable 4.6 mph - 0.13 in Rain , Thunderstorm Heavy Thunderstorms and Rain
5:47 PM 71.6 °F - 69.8 °F 94% 30.29 in 1.2 mi Variable 4.6 mph - 0.84 in Rain , Thunderstorm Heavy Thunderstorms and Rain
5:48 PM 71.1 °F - 69.1 °F 93% 30.23 in 1.2 mi Variable 5.8 mph - 0.84 in Rain , Thunderstorm Heavy Thunderstorms and Rain
5:57 PM 71.1 °F - 69.1 °F 93% 30.29 in 1.8 mi SW 12.7 mph - 0.06 in Rain , Thunderstorm Heavy Thunderstorms and Rain
6:30 PM 68.0 °F - 64.9 °F 90% 30.30 in 3.0 mi NW 17.3 mph 21.9 mph 0.16 in Rain , Thunderstorm Light Thunderstorms and Rain
6:53 PM 70.0 °F - 66.9 °F 90% 30.22 in 3.0 mi Calm Calm - 0.17 in Rain , Thunderstorm Heavy Thunderstorms and Rain
7:28 PM 69.1 °F - 66.9 °F 93% 30.29 in 3.0 mi Variable 3.5 mph - 0.14 in Rain , Thunderstorm Light Thunderstorms and Rain
7:53 PM 68.0 °F - 66.9 °F 96% 30.22 in 4.0 mi Calm Calm - 0.39 in Rain , Thunderstorm Thunderstorms and Rain
8:10 PM 68.0 °F - 66.9 °F 96% 30.28 in 10.0 mi ESE 4.6 mph - 0.01 in Rain Light Rain
8:45 PM 69.1 °F - 66.9 °F 93% 30.30 in 2.0 mi ESE 5.8 mph - 0.07 in Rain Rain
8:53 PM 69.1 °F - 66.9 °F 93% 30.23 in 2.0 mi East 3.5 mph - 0.13 in Rain Light Rain
9:00 PM 69.1 °F - 66.9 °F 93% 30.30 in 9.0 mi East 3.5 mph - 0.00 in Rain , Thunderstorm Light Thunderstorms and Rain
9:53 PM 70.0 °F - 68.0 °F 93% 30.23 in 10.0 mi SSW 3.5 mph - 0.01 in Thunderstorm Thunderstorm
10:08 PM 70.0 °F - 66.9 °F 90% 30.29 in 10.0 mi WNW 6.9 mph - N/A   Mostly Cloudy
10:53 PM 69.1 °F - 68.0 °F 96% 30.24 in 9.0 mi Calm Calm - 0.02 in Rain Light Rain
11:53 PM 69.1 °F - 68.0 °F 96% 30.21 in 9.0 mi Calm Calm - 0.02 in Rain Light Rain